Regional Weather Roundup
Issued by NWS Charleston, SC

Current Version | Previous Version | Graphics & Text | Print | Product List | Glossary On
Versions: 1 2 3 4 5 6 7 8 9 10 11 12 13 14 15 16 17 18 19 20 21 22 23 24 25 26 27 28 29 30 31 32 33 34 35 36 37 38 39 40 41 42 43 44 45 46 47 48 49 50
000
ASUS42 KCHS 010411
RWRCHS

REGIONAL WEATHER ROUNDUP
NATIONAL WEATHER SERVICE CHARLESTON SC
1100 PM EST SAT JAN 31 2015

NOTE: "FAIR" INDICATES FEW OR NO CLOUDS BELOW 12,000 FEET WITH NO
SIGNIFICANT WEATHER AND/OR OBSTRUCTIONS TO VISIBILITY.

NOT ALL STATIONS ARE QUALITY CONTROLLED BY THE NATIONAL
WEATHER SERVICE. USE DATA WITH CAUTION...ESPECIALLY
DEWPOINT OBSERVATIONS.

SCZ027-030-031-034>040-042>050-010500-
...SOUTHEAST SOUTH CAROLINA...

CITY           SKY/WX    TMP DP  RH WIND       PRES   REMARKS
N CHARLESTON   MOCLDY    40  28  62 CALM      30.36S
WATERFRONT PRK NOT AVBL
MOUNT PLEASANT LGT RAIN  32  30  93 CALM      30.37R
PINOPOLIS        N/A     43  27  52 VRB2      30.27S
MONCKS CORNER  FAIR      36  30  80 CALM      30.35F
SUMMERVILLE    NOT AVBL
BEAUFORT MCAS  CLOUDY    42  33  70 CALM      30.35F
BEAUFORT ARPT  FAIR      41  36  81 CALM      30.35S
HILTON HEAD IS CLOUDY    43  34  70 CALM      30.36F
WALTERBORO     PTCLDY    34  28  80 CALM      30.36S
ALLENDALE      FAIR      39  27  60 CALM      30.33F

...SOUTHERN MIDLANDS AND PEE DEE...

CITY           SKY/WX    TMP DP  RH WIND       PRES   REMARKS
GEORGETOWN     NOT AVBL
KINGSTREE      NOT AVBL
ORANGEBURG     MOCLDY    39  26  59 S5        30.33F WCI  36
BARNWELL       FAIR      45  25  45 CALM      30.33F
AIKEN          FAIR      43  27  52 SE5       30.33F
MANNING        FAIR      41  30  65 S3        30.34S
COLUMBIA       CLOUDY    39  26  59 CALM      30.31F
SUMTER         MOCLDY    37  21  53 S5        30.30F WCI  33
FLORENCE       CLEAR     32  23  69 SE3       30.32F
MYRTLE BEACH   CLEAR     36  28  75 CALM      30.37S
N MYRTLE BEACH CLEAR     33  27  78 CALM      30.34F

$$

GAZ063-065-086>088-099>101-113>116-118-119-134>141-150-010500-
...SOUTHEAST GEORGIA...

CITY           SKY/WX    TMP DP  RH WIND       PRES   REMARKS
SAVANNAH ARPT  CLOUDY    44  31  60 CALM      30.35F
HUNTER AAF     CLOUDY    42  35  76 SE2       30.33F
FORT STEWART   MOCLDY    37  31  79 CALM      30.33F
STATESBORO     MOCLDY    39  32  75 CALM      30.34S
SYLVANIA       MOCLDY    41  31  66 CALM      30.34F
CLAXTON        FAIR      39  32  75 CALM      30.34F

...CSRA...CENTRAL AND FAR SOUTHEAST GEORGIA...

CITY           SKY/WX    TMP DP  RH WIND       PRES   REMARKS
THOMSON        CLOUDY    44  34  69 CALM      30.34F
AUGUSTA-BUSH   CLOUDY    43  26  51 S6        30.32F
AUGUSTA-DANIEL CLOUDY    49  19  30 SE6       30.31F
SWAINSBORO     FAIR      46  19  34 SE6       30.33S
VIDALIA        MOCLDY    43  32  65 SE5       30.33F
EASTMAN        FAIR      39  31  75 CALM      30.34S
HAZLEHURST     FAIR      44  33  64 SE6       30.31F
ALMA           CLEAR     42  32  67 SE3       30.32F
WAYCROSS       CLEAR     45  37  75 E5        30.33S
JESUP          FAIR      37  36  93 CALM      30.34F
BAXLEY         FAIR      43  34  70 CALM      30.32F
BRUNSWICK      MOCLDY    37  36  93 CALM      30.35F
SAINT SIMONS   MOCLDY    42  38  85 NE3       30.34F

$$

SCZ027-028-034-036>038-045-046-048>050-GAZ119-141-010500-
...LAKE AND SUPPLEMENTAL COASTAL OBSERVATIONS...

STATION/POSITION TIME  TEMP    WIND        PRES    WAVE   SWELL
                       AIR SEA DIR/SP/G            HT/PER HT/PER/DIR
                 (UTC) (F)     (DEG/KT/KT) (MB)    (FT/S) (FT/S/D)
UPR LAKE MARION  NOT AVBL
WINYAH BAY       0245   36     290/  2     1027.0
LAKE MURRAY      0300   48     210/  6/  9 1026.1S
ACE BASIN NERRS  NOT AVBL
FORT PULASKI     0300   48 52  130/  3/  3 1028.5F
SAPELO ISLAND    0300   39      20/  2     1028.0S

$$

ANZ835-935-AMZ111-154-330-350-352-354-370-450-454-472-010500-
...C-MAN AND BUOY OBSERVATIONS...

STATION/POSITION TIME  TEMP    WIND        PRES    WAVE   SWELL
                       AIR SEA DIR/SP/G            HT/PER HT/PER/DIR
                 (UTC) (F)     (DEG/KT/KT) (MB)    (FT/S) (FT/S/D)
BUOY 41004       0350   53 69  300/  2/  4 1027.8F   4/11   5/11
BUOY 41008       0350   54 53  100/  8/ 10 1027.5F   3/ 7   3/ 70/ 7
FOLLY BEACH CMAN 0400   48     190/  4/  5 1028.4F
CAPERS NEARSHORE NOT AVBL
FRIPP NEARSHORE  0300   50     160/  6/  8 1027.3R


STATION/POSITION TIME  TEMP    WIND        PRES    WAVE   SWELL
                       AIR SEA DIR/SP/G            HT/PER HT/PER/DIR
                 (UTC) (F)     (DEG/KT/KT) (MB)    (FT/S) (FT/S/D)
5E ST. MARYS GA  0321      56                N/A     3/ 6
FRYING PAN BUOY  0350   49 63  290/  4/  4 1028.4F   3/11   3/ 80/11
BUOY 41025       0350   46 71  280/ 12/ 17 1027.0R   5/11   5/ 50/11
CAPE LOOKOUT NC  0300   43     280/  2/  2 1027.3S
BUOY 41002       0350   55 69  350/ 12/ 17 1027.3R  10/10  10/ 10/10
BUOY 41010       0320   63 73   60/ 12/ 16 1026.5R
ST AUGUSTINE FL  0400   53     330/  4/  4 1026.5F


$$



USA.gov is the U.S. government's official web portal to all federal, state and local government web resources and services.